Vertical_Velocity
-4 0 -1 -4 -4 -1 1 8 8 -3 -2 -3 1 0 3 5 28 1 -5 -13 -4 3 2 10 5 1 3 1 1 1 -2 -0 -2 -1 -4 1 -0 1 1 0 -0 2 2 1 0
-8 1 2 1 -0 0 -0 -1 5 7 -3 -1 -1 4 -2 -9 9 -4 -8 1 1 3 2 1 2 -1 2 1 1 -0 0 -5 -3 -2 -1 -0 -0 -1 0 -1 0 1 0 -2 1
-4 -3 5 5 4 4 1 2 -2 -3 -3 -2 1 -0 -1 -10 -2 -19 -2 4 0 4 1 5 6 0 1 1 -0 0 -2 -1 -1 -1 0 -1 0 0 -1 -0 -1 -1 2 -1 1
4 -2 -3 -0 -2 2 -1 -1 3 6 -6 -2 -0 0 -1 4 3 1 5 3 4 4 4 3 9 2 -1 -0 1 -2 0 -1 0 0 -0 -0 0 -0 0 -5 -0 -1 0 1 -1
-5 5 7 2 -2 -1 1 0 0 -4 5 -4 -1 -2 3 1 -20 -3 2 6 5 7 -1 -1 -1 -1 -2 -2 0 -0 -0 1 1 1 -0 -0 -1 -3 -5 1 -0 0 -2 -0 1
3 -0 11 -13 -1 -1 1 0 -2 -2 -0 0 -3 2 6 6 -11 8 1 8 -4 4 3 5 -6 -4 -3 -2 -1 -3 -2 -1 1 -1 1 -1 -2 4 -4 -1 -1 -1 -2 -1 -3
6 3 6 2 -4 -5 -0 1 -1 -2 -1 2 0 2 6 -18 10 -7 -4 -0 2 -2 -3 0 -1 2 -0 2 -0 -2 -1 0 -1 -1 -1 0 -0 -1 -7 -1 -3 1 -1 -3 -3
6 4 11 6 -1 -1 4 -2 3 -2 1 1 -2 2 -5 -14 4 -6 10 6 12 8 3 -8 2 -0 2 5 -1 -2 -2 1 -1 1 -3 -1 -7 -1 0 2 -2 -1 1 -1 -5
2 -7 -10 -6 -0 -2 1 -2 2 -1 3 -2 1 -1 -2 -8 -1 1 9 -3 5 11 13 3 2 0 2 -2 0 2 -1 0 -1 -0 -0 1 -1 -1 2 1 -3 -2 -2 -1 -5
6 3 2 7 -1 5 0 -1 2 -1 6 -2 2 5 1 -3 1 2 -10 -3 1 6 19 16 3 -1 2 1 -4 -1 0 1 -1 1 0 1 -3 -3 -7 3 -2 -3 -5 -1 -1
6 2 -1 8 6 -2 -3 5 0 -1 1 -5 -7 4 4 2 2 -8 0 20 10 8 0 4 -0 -4 -5 -2 -2 -2 -1 -1 -0 1 0 -1 -1 -4 -5 1 -1 -4 -4 -4 1
2 2 -18 6 2 -2 -3 -2 -1 -1 -4 1 -1 -8 -2 4 4 4 8 7 -6 -1 1 6 -1 -2 -1 -0 -2 -0 -1 -0 -1 -0 -0 -1 -5 -4 -0 -3 1 2 -1 -2 0
3 -5 6 2 -0 -2 -3 -0 1 -0 -1 3 0 -3 9 0 3 3 7 7 -7 1 0 -5 2 -0 -2 1 -1 1 -2 -0 -2 -1 -0 0 -3 -2 -0 -1 0 1 2 0 1
2 -2 5 -5 -1 1 -3 -0 -0 -1 -7 -0 0 -4 11 -7 0 5 -13 5 -1 -2 -1 -1 0 -3 2 -1 -3 0 -1 -1 -0 -2 -1 -0 -5 -2 0 -1 0 -0 1 3 2
-0 -0 -3 -3 -5 -1 -1 1 -2 1 -12 -7 -5 -3 16 -4 -1 1 1 -10 -0 1 -3 -0 0 1 1 -3 -2 1 -1 -1 -0 -1 -1 -2 -3 -9 -1 0 0 -0 2 3 2
1 -0 2 3 2 2 1 -2 -1 -19 -7 -0 -3 2 -2 0 0 1 -8 -1 1 -4 -0 2 -1 -2 -1 1 0 -1 -4 -2 -1 -1 -2 -1 -0 -5 -1 -1 -1 -0 1 2 2
-2 1 -9 -5 -1 -0 1 -1 -13 -9 -4 1 2 0 -1 2 -0 -1 1 1 -2 -2 -0 0 1 -0 -3 -5 -0 -0 -3 -2 -3 -4 -3 -0 1 -9 -1 -1 -1 0 -0 4 2
2 -4 0 -9 -0 -5 -1 -8 -13 0 -1 -0 -1 -1 -2 -1 2 0 -1 -0 -2 -3 -1 -2 6 1 -1 -2 -7 1 -4 -5 -3 -1 -2 0 -3 -5 -2 -1 -0 0 1 -2 -1
-2 2 -3 3 0 -2 -2 -7 -7 0 1 -2 -3 -4 -1 -0 -6 -2 0 -0 0 -0 -6 -2 0 -1 -1 -0 -4 -2 -3 -2 -5 0 -2 -2 -6 -4 -0 0 0 -1 1 -1 1
-1 -3 1 2 0 -2 -1 -0 0 -0 1 -3 -2 -0 -1 0 -2 -1 -0 -1 1 0 -1 1 -4 -0 -0 -2 -1 -3 -3 -4 -3 -3 -1 -2 -1 -3 -1 -1 -1 -2 -1 0 1
-5 -2 -0 -0 1 -2 -1 1 1 2 0 -3 -1 -1 -0 -2 -1 -0 -1 1 -0 0 -1 -1 -7 1 -0 -1 -3 -1 -0 -3 -6 -1 -2 -1 -5 -4 -2 -1 -0 -1 -1 1 0
-0 -6 1 1 -13 0 -0 3 2 -1 0 -0 -3 -1 -1 -0 -0 -0 -3 -1 -0 -2 -1 1 -3 -1 0 0 -0 -1 -1 -2 -5 -2 0 -1 -10 -0 -1 -1 0 -2 -1 0 1
-1 -3 -2 0 -4 -1 -2 -1 1 -2 0 -1 -0 -1 -0 -1 -3 -1 -0 -0 -1 -1 -3 -3 -1 -2 -1 -1 -1 -0 0 -1 -1 -2 -2 -2 -7 -0 -0 -0 -3 -1 2 -1 -3
-0 -6 -5 -5 2 -1 -0 -1 -2 0 -0 0 -1 -1 -1 -0 -1 -1 1 0 0 1 1 -4 -0 -5 -6 -7 -3 1 1 0 -3 -1 -2 -4 -3 -4 -2 -0 -3 -3 2 2 -2
-1 1 -0 -3 -3 -1 0 -0 -0 -2 -1 0 -1 -1 -2 -1 -0 -0 0 1 1 1 -1 -5 -2 -1 -1 -0 -0 -1 -1 0 0 -2 -5 -4 -1 -3 -2 -0 -2 3 -1 -2 2
-1 -2 -2 -0 -0 1 -1 0 0 -1 1 -1 -3 0 -0 -2 -5 -3 -3 -1 -4 1 -0 -0 1 -1 -1 0 0 0 -0 0 -0 -0 1 1 -8 -1 -4 -1 1 1 -0 0 0
-1 2 -0 -1 -1 -1 0 -1 -1 0 -1 -0 -2 -2 -1 -1 -1 -0 -0 -1 -4 -5 -0 -2 -2 -2 -2 -0 -1 -1 -7 -2 -1 0 -6 -2 -13 -0 -3 -1 -0 -0 2 -0 -0
Height
1492 1489 1486 1483 1480 1478 1476 1476 1476 1476 1476 1476 1476 1475 1475 1476 1474 1477 1475 1479 1485 1487 1488 1494 1497 1502 1504 1507 1510 1511 1517 1521 1517 1522 1519 1518 1520 1520 1522 1523 1523 1523 1522 1522 1522
1488 1485 1480 1477 1475 1472 1471 1470 1471 1471 1471 1472 1472 1472 1472 1472 1469 1468 1473 1477 1481 1485 1487 1489 1493 1499 1504 1505 1508 1509 1513 1513 1511 1512 1514 1516 1517 1518 1520 1521 1521 1521 1522 1521 1521
1483 1480 1476 1473 1470 1468 1467 1466 1466 1467 1468 1469 1469 1467 1468 1469 1469 1462 1469 1472 1476 1481 1485 1489 1494 1498 1502 1503 1506 1507 1508 1507 1508 1509 1512 1514 1516 1517 1517 1519 1519 1520 1520 1520 1520
1479 1476 1472 1469 1466 1464 1463 1462 1461 1462 1463 1464 1466 1464 1464 1468 1467 1462 1463 1465 1471 1478 1483 1485 1491 1495 1500 1502 1503 1507 1506 1505 1507 1508 1512 1514 1515 1516 1515 1515 1517 1518 1519 1520 1520
1474 1471 1468 1466 1463 1462 1459 1459 1458 1458 1459 1461 1461 1461 1460 1464 1460 1460 1459 1462 1467 1473 1477 1481 1487 1491 1496 1499 1502 1504 1505 1505 1506 1507 1510 1513 1514 1515 1513 1514 1515 1517 1518 1520 1521
1470 1466 1464 1463 1460 1458 1457 1455 1454 1454 1455 1456 1457 1457 1458 1460 1455 1457 1458 1461 1463 1470 1474 1479 1483 1490 1494 1497 1501 1501 1504 1505 1504 1506 1507 1511 1513 1513 1510 1510 1511 1513 1515 1517 1518
1465 1462 1460 1458 1456 1455 1453 1452 1451 1451 1451 1452 1453 1453 1452 1450 1453 1454 1458 1460 1462 1467 1471 1478 1484 1489 1490 1496 1499 1502 1505 1505 1504 1506 1508 1509 1511 1509 1506 1509 1509 1509 1511 1513 1515
1462 1458 1454 1453 1452 1451 1449 1448 1448 1447 1448 1448 1450 1451 1448 1447 1450 1453 1458 1457 1462 1468 1474 1479 1485 1488 1490 1493 1498 1502 1504 1509 1503 1503 1505 1508 1509 1503 1504 1506 1505 1506 1506 1507 1509
1457 1453 1451 1449 1447 1446 1446 1445 1444 1444 1445 1447 1449 1450 1446 1446 1446 1450 1453 1454 1461 1467 1473 1479 1484 1487 1490 1492 1499 1503 1507 1508 1503 1502 1502 1506 1509 1503 1504 1504 1503 1502 1501 1501 1503
1453 1448 1447 1445 1444 1443 1443 1441 1441 1441 1443 1445 1447 1451 1443 1443 1444 1446 1451 1454 1458 1466 1474 1480 1482 1486 1488 1490 1494 1501 1504 1505 1504 1502 1502 1505 1507 1503 1500 1500 1500 1498 1497 1497 1498
1446 1442 1442 1442 1442 1442 1442 1441 1444 1444 1442 1442 1442 1439 1439 1443 1446 1448 1451 1449 1456 1462 1464 1472 1478 1477 1482 1488 1493 1496 1500 1501 1502 1502 1502 1503 1505 1500 1497 1496 1494 1492 1492 1491 1492
1439 1435 1433 1439 1439 1441 1441 1441 1442 1444 1442 1439 1440 1439 1441 1443 1446 1449 1450 1451 1455 1458 1467 1476 1475 1479 1485 1491 1493 1495 1499 1503 1503 1502 1501 1502 1499 1489 1488 1488 1487 1487 1487 1486 1488
1438 1433 1433 1437 1438 1440 1441 1442 1442 1442 1442 1441 1440 1440 1440 1443 1445 1449 1447 1450 1459 1467 1468 1469 1475 1478 1483 1491 1494 1497 1498 1503 1503 1503 1503 1503 1494 1488 1485 1486 1486 1484 1481 1482 1484
1440 1435 1435 1438 1441 1439 1441 1442 1442 1442 1451 1445 1442 1441 1441 1442 1447 1451 1451 1452 1459 1467 1473 1476 1477 1477 1482 1489 1489 1494 1495 1499 1503 1505 1506 1508 1501 1489 1488 1486 1486 1484 1482 1480 1483
1443 1438 1437 1439 1441 1442 1445 1443 1443 1444 1468 1450 1445 1443 1442 1446 1448 1453 1454 1456 1459 1470 1474 1482 1476 1479 1481 1486 1487 1494 1497 1502 1508 1512 1512 1511 1509 1486 1488 1488 1487 1487 1484 1483 1484
1449 1445 1443 1443 1444 1445 1445 1445 1445 1455 1466 1451 1447 1445 1446 1448 1450 1457 1459 1461 1468 1471 1475 1478 1481 1486 1487 1489 1491 1497 1502 1510 1516 1516 1514 1515 1512 1490 1490 1489 1489 1488 1486 1485 1483
1457 1454 1450 1448 1448 1448 1448 1447 1455 1453 1458 1450 1448 1447 1447 1452 1455 1457 1460 1464 1466 1474 1479 1481 1485 1488 1488 1492 1496 1497 1501 1516 1516 1521 1506 1518 1517 1492 1489 1487 1489 1488 1485 1483 1481
1461 1459 1456 1454 1451 1450 1449 1452 1460 1456 1455 1449 1448 1451 1453 1456 1461 1461 1462 1466 1467 1469 1482 1483 1490 1490 1488 1488 1492 1498 1499 1508 1501 1510 1507 1520 1505 1485 1486 1485 1486 1484 1482 1481 1479
1460 1459 1457 1453 1451 1449 1449 1453 1467 1458 1456 1450 1450 1457 1459 1459 1462 1467 1470 1470 1470 1470 1476 1484 1494 1490 1490 1489 1493 1501 1508 1508 1524 1538 1522 1508 1499 1487 1485 1484 1484 1481 1478 1476 1474
1459 1457 1456 1452 1450 1448 1448 1449 1455 1458 1454 1454 1457 1458 1464 1462 1464 1466 1470 1470 1471 1471 1471 1481 1495 1493 1492 1491 1495 1494 1502 1509 1521 1523 1506 1500 1502 1485 1484 1483 1481 1478 1476 1474 1473
1458 1457 1457 1453 1451 1451 1454 1456 1455 1455 1454 1455 1460 1461 1463 1464 1465 1468 1472 1471 1470 1473 1472 1478 1486 1496 1493 1494 1497 1500 1503 1509 1510 1517 1503 1499 1486 1483 1482 1480 1478 1476 1475 1472 1469
1459 1462 1459 1455 1456 1458 1461 1460 1457 1456 1454 1454 1456 1458 1462 1464 1467 1468 1470 1469 1469 1470 1475 1478 1490 1498 1494 1495 1494 1494 1497 1502 1510 1516 1523 1518 1489 1478 1478 1477 1477 1476 1473 1470 1468
1461 1462 1461 1457 1466 1466 1463 1461 1460 1457 1456 1455 1455 1456 1459 1463 1467 1468 1469 1469 1469 1470 1474 1477 1491 1506 1497 1498 1496 1495 1498 1500 1507 1513 1517 1503 1483 1477 1478 1476 1474 1473 1471 1468 1466
1463 1466 1464 1462 1464 1466 1466 1465 1462 1459 1457 1457 1457 1457 1458 1462 1464 1468 1469 1470 1470 1471 1471 1474 1486 1491 1493 1492 1493 1497 1496 1498 1500 1509 1505 1499 1489 1476 1476 1474 1470 1469 1466 1464 1464
1465 1470 1471 1471 1467 1468 1466 1464 1462 1462 1458 1457 1457 1457 1459 1464 1465 1468 1468 1470 1471 1471 1473 1476 1491 1495 1488 1488 1491 1490 1490 1495 1498 1495 1497 1487 1489 1475 1474 1470 1468 1466 1463 1464 1462
1468 1471 1470 1469 1469 1468 1466 1464 1462 1460 1460 1458 1459 1459 1458 1462 1462 1467 1466 1469 1470 1473 1474 1477 1490 1493 1494 1487 1490 1491 1488 1489 1490 1489 1490 1489 1483 1470 1467 1468 1466 1464 1462 1460 1458
1470 1471 1472 1470 1469 1469 1468 1464 1461 1460 1460 1458 1458 1459 1461 1461 1461 1461 1462 1463 1464 1470 1475 1477 1487 1497 1496 1489 1490 1490 1479 1479 1481 1482 1480 1487 1472 1467 1466 1465 1463 1460 1460 1457 1457